APRIZESAT 5

Last updated on Sun Sep 20 2026 00:03:35 GMT+0000 (Coordinated Universal Time)

1 37792U 11044E 26262.04514862 .00000712 00000+0 96715-4 0 9997 2 37792 98.2481 197.7629 0053291 61.1167 299.5377 14.81214194812687
UTC large
Height (km)
Speed (km/s)
/
Latitude / Longitude
Inclination (degrees)
Orbital Period (minutes)
Azimuth
Elevation
Range (km)
Doppler Factor

Next 0 passes for location: London (51.5072 / 0.1276)

No passes found over London.
APRIZESAT 5